[[{"header":{"parameterUnit":"m.s-1","parameterCategory":1,"la1":30.2991,"la2":30.254,"lo1":-89.0895,"lo2":-89.0444,"dy":0.0017,"dx":0.0017,"nx":28,"ny":28,"refTime":"2024-02-08T03:00:00:Z","depth":0,"parameterNumber":2,"parameterNumberName":"U-component_of_WINDS"},"data":[0,0,0,0,0,0,0,0,0,0,0,0,0,0,0,0,0,0,0,0,0,0,0,0,0,0,0,0,0,0,0,0,0,0,0,0,0,0,0,0,0,0,0,0,0,0,0,0,0,0,0,0,0,0,0,0,0,0,-3.4343,-3.4345,0,-3.451,-3.4512,-3.4514,-3.4514,-3.4511,-3.4509,-3.4507,-3.4676,-3.4682,-3.4689,0,0,0,0,0,0,0,0,0,0,0,0,0,-3.4021,-3.4027,-3.4343,-3.4345,-3.4347,-3.451,-3.4512,-3.4515,-3.4514,-3.4511,-3.4509,-3.4506,-3.4674,-3.4682,-3.4689,0,0,0,0,0,0,0,0,0,0,0,0,0,-3.4171,-3.4029,-3.4343,-3.4367,-3.437,-3.451,-3.4512,-3.4515,-3.4515,-3.4511,-3.4508,-3.4505,-3.4671,-3.4681,-3.4691,-3.4816,0,0,-3.472,-3.4725,0,0,0,0,0,0,0,0,-3.4163,-3.4183,-3.4361,-3.4365,-3.437,-3.4488,-3.4461,-3.4616,-3.4515,-3.446,-3.4507,-3.4503,-3.4616,-3.463,-3.4669,-3.4824,-3.4831,-3.4721,-3.4727,-3.4731,-3.4734,0,0,0,0,0,0,0,-3.4152,-3.4176,-3.4409,-3.4364,-3.4369,-3.4368,-3.4386,-3.449,-3.4554,-3.4464,-3.4465,-3.4485,-3.4618,-3.4659,-3.4672,-3.4834,-3.4721,-3.473,-3.4736,-3.474,-3.5099,-3.5103,0,0,0,0,0,0,-3.4137,-3.4167,-3.4404,-3.4414,-3.4256,-3.4377,-3.4397,-3.4453,-3.4553,-3.4565,-3.4487,-3.4484,-3.4644,-3.4661,-3.4678,-3.4831,-3.4731,-3.4741,-3.4746,-3.5096,-3.51,-3.5104,0,0,0,0,0,0,-3.4131,-3.4159,-3.4397,-3.4291,-3.4321,-3.4386,-3.4449,-3.4458,-3.45,-3.457,-3.4581,-3.4518,-3.4642,-3.4665,-3.4782,-3.4837,-3.4745,-3.4754,-3.5091,-3.5097,-3.5102,-3.5137,0,0,0,0,0,0,-3.4121,-3.4156,-3.4205,-3.4292,-3.4327,-3.4498,-3.4453,-3.4464,-3.4517,-3.4514,-3.4602,-3.4613,-3.4641,-3.4767,-3.4791,-3.4848,-3.4761,-3.5087,-3.5094,-3.51,-3.5131,-3.5143,-3.5153,0,0,0,0,0,-3.411,-3.4208,-3.4208,-3.4236,-3.439,-3.4502,-3.4521,-3.4552,-3.4521,-3.457,-3.4616,-3.4611,-3.4827,-3.4779,-3.4807,-3.4867,-3.5083,-3.5092,-3.51,-3.5126,-3.5141,-3.5153,0,0,0,0,0,0,-3.4125,-3.422,-3.422,-3.435,-3.4418,-3.4501,-3.4564,-3.4567,-3.4644,-3.4638,-3.4673,-3.4692,-3.4809,-3.485,-3.4795,-3.4993,-3.4951,-3.4965,-3.4962,-3.4976,-3.4987,-3.4974,-3.477,0,0,0,0,0,-3.4144,-3.4227,-3.4306,-3.4412,-3.4446,-3.45,-3.455,-3.4567,-3.4639,-3.4667,-3.4721,-3.479,-3.4873,-3.4927,-3.5008,-3.5138,-3.5156,-3.5193,-3.5204,-3.5213,-3.5224,-3.5294,-3.5311,-3.5131,-3.5131,-3.5131,0,0,-3.4182,-3.4245,-3.4295,-3.4417,-3.4471,-3.4556,-3.4524,-3.4615,-3.4678,-3.4681,-3.4794,-3.4837,-3.4915,-3.5039,-3.5096,-3.5077,-3.5278,-3.5223,-3.523,-3.5236,-3.5304,-3.5321,-3.5336,-3.5137,-3.5136,-3.5135,0,0,-3.4296,-3.4353,-3.4447,-3.4503,-3.4586,-3.4621,-3.4644,-3.4727,-3.4755,-3.487,-3.4874,-3.4949,-3.5092,-3.5148,-3.5195,-3.533,-3.5327,-3.5355,-3.5412,-3.548,-3.5494,-3.5506,-3.5553,-3.5569,-3.5367,-3.5367,-3.5367,0,-3.4333,-3.4463,-3.4495,-3.4587,-3.4639,-3.4647,-3.4742,-3.4794,-3.4899,-3.4935,-3.4913,-3.5092,-3.5146,-3.5281,-3.5314,-3.5353,-3.5379,-3.5344,-3.5489,-3.5502,-3.5515,-3.5559,-3.5577,-3.5369,-3.5369,-3.5369,-3.5369,0,-3.4503,-3.4593,-3.4659,-3.4761,-3.4821,-3.4914,-3.496,-3.5017,-3.503,-3.5067,-3.5183,-3.5248,-3.5341,-3.5375,-3.5388,-3.5513,-3.5498,-3.5482,-3.544,-3.5534,-3.5576,-3.5593,-3.5373,-3.5372,-3.5371,-3.5371,0,0,-3.463,-3.4749,-3.4773,-3.4819,-3.4912,-3.4981,-3.5074,-3.5166,-3.5213,-3.5286,-3.5363,-3.5485,-3.547,-3.5524,-3.5544,-3.5603,-3.5704,-3.558,-3.5582,-3.5599,-3.5843,-3.5852,-3.5872,-3.5704,-3.5707,-3.571,-3.5835,0,-3.4752,-3.4918,-3.495,-3.5094,-3.5176,-3.5184,-3.5265,-3.533,-3.5367,-3.5441,-3.5482,-3.5567,-3.5543,-3.5575,-3.5634,-3.5679,-3.5753,-3.5671,-3.5774,-3.5778,-3.5752,-3.5894,-3.5905,-3.6021,-3.5852,-3.5855,-3.5857,0,-3.4917,-3.4994,-3.5146,-3.5227,-3.5262,-3.5335,-3.5421,-3.5493,-3.5566,-3.5589,-3.5649,-3.5662,-3.5757,-3.5712,-3.5843,-3.5786,-3.5831,-3.5859,-3.5864,-3.5874,-3.5822,-3.5905,-3.6058,-3.6075,-3.5884,-3.5882,-3.588,0,-3.4991,-3.5133,-3.5242,-3.5282,-3.538,-3.543,-3.5473,-3.5543,-3.5596,-3.5672,-3.5706,-3.5792,-3.5838,-3.5903,-3.5938,-3.5903,-3.6066,-3.6025,-3.6086,-3.6085,-3.6118,-3.6115,-3.6279,-3.6151,-3.615,-3.615,-3.615,0,-3.5123,-3.5215,-3.5277,-3.5344,-3.5447,-3.5483,-3.5583,-3.5626,-3.5688,-3.5762,-3.5775,-3.5844,-3.5888,-3.5963,-3.5991,-3.6094,-3.6115,-3.6135,-3.6141,-3.6133,-3.613,-3.6161,-3.6153,-3.6155,-3.6154,-3.6153,-3.6152,0,-3.5223,-3.5269,-3.5387,-3.5471,-3.5494,-3.5566,-3.5637,-3.5701,-3.5738,-3.5832,-3.5856,-3.5914,-3.6003,-3.6045,-3.6156,-3.6174,-3.6291,-3.6293,-3.6266,-3.6268,-3.6326,-3.6319,-3.6513,-3.6539,-3.6396,-3.6397,-3.6398,0,-3.5303,-3.5374,-3.5465,-3.5516,-3.5561,-3.5643,-3.5697,-3.5735,-3.5791,-3.588,-3.5933,-3.6023,-3.6097,-3.6238,-3.6289,-3.6373,-3.6376,-3.6438,-3.6388,-3.6377,-3.6374,-3.6369,-3.6375,-3.6446,-3.6448,-3.6449,-3.645,0,-3.544,-3.5459,-3.5537,-3.5623,-3.5688,-3.5757,-3.5825,-3.5866,-3.5915,-3.5977,-3.6068,-3.6126,-3.6238,-3.6326,-3.6414,-3.6457,-3.6461,-3.6465,-3.6483,-3.6475,-3.6455,-3.6464,-3.6288,-3.646,-3.6459,-3.6458,-3.6458,-3.6457,-3.5531,-3.5594,-3.5668,-3.5754,-3.581,-3.5873,-3.5938,-3.5983,-3.6061,-3.6156,-3.6173,-3.627,-3.6341,-3.6459,-3.6505,-3.658,-3.6566,-3.6593,-3.6599,-3.6605,-3.6607,-3.6445,-3.6597,-3.6596,-3.6596,-3.6596,-3.6596,0,-3.5666,-3.5714,-3.5794,-3.5889,-3.5957,-3.5957,-3.6032,-3.6088,-3.6173,-3.624,-3.6312,-3.6416,-3.6502,-3.6561,-3.6647,-3.6696,-3.67,-3.6717,-3.6712,-3.6722,-3.6616,-3.659,-3.6712,-3.6712,-3.6712,-3.6712,-3.6712,-3.6712,-3.5744,-3.585,-3.5878,-3.6012,-3.6059,-3.6154,-3.6197,-3.6255,-3.6308,-3.6425,-3.6496,-3.6534,-3.6597,-3.6688,-3.6766,-3.6781,-3.6811,-3.6829,-3.6843,-3.6742,-3.673,-3.6718,-3.6694,-3.6835,-3.6836,-3.6942,-3.6943,-3.6944]},{"header":{"parameterUnit":"m.s-1","parameterCategory":1,"la1":30.2991,"la2":30.254,"lo1":-89.0895,"lo2":-89.0444,"dy":0.0017,"dx":0.0017,"nx":28,"ny":28,"refTime":"2024-02-08T03:00:00:Z","depth":0,"parameterNumber":3,"parameterNumberName":"V-component_of_WINDS"},"data":[0,0,0,0,0,0,0,0,0,0,0,0,0,0,0,0,0,0,0,0,0,0,0,0,0,0,0,0,0,0,0,0,0,0,0,0,0,0,0,0,0,0,0,0,0,0,0,0,0,0,0,0,0,0,0,0,0,0,1.8573,1.8576,0,1.882,1.8823,1.8826,1.8908,1.8907,1.8906,1.8905,1.9159,1.9166,1.9174,0,0,0,0,0,0,0,0,0,0,0,0,0,1.8173,1.818,1.8573,1.8576,1.8579,1.882,1.8823,1.8827,1.8908,1.8907,1.8905,1.8904,1.9156,1.9166,1.9175,0,0,0,0,0,0,0,0,0,0,0,0,0,1.8376,1.8182,1.8572,1.8648,1.8658,1.8819,1.8824,1.8828,1.8908,1.8907,1.8905,1.8904,1.9153,1.9165,1.9176,1.928,0,0,1.9212,1.9217,0,0,0,0,0,0,0,0,1.8365,1.8391,1.8634,1.8644,1.8654,1.8832,1.8776,1.8979,1.8909,1.8813,1.8905,1.8903,1.9051,1.9071,1.9121,1.9292,1.9303,1.9213,1.922,1.9225,1.9228,0,0,0,0,0,0,0,1.8351,1.8381,1.8671,1.8638,1.865,1.8671,1.8698,1.8815,1.8938,1.8821,1.8828,1.8856,1.9057,1.911,1.9128,1.9307,1.9212,1.9223,1.923,1.9234,1.958,1.9582,0,0,0,0,0,0,1.8323,1.8368,1.8663,1.8678,1.8503,1.868,1.871,1.8776,1.8937,1.896,1.8857,1.8859,1.9091,1.9114,1.9137,1.9273,1.9225,1.9236,1.9242,1.9577,1.958,1.9582,0,0,0,0,0,0,1.8314,1.8349,1.8653,1.8525,1.8566,1.8688,1.8762,1.8782,1.8836,1.8964,1.8987,1.8889,1.909,1.9121,1.9245,1.9283,1.9241,1.9251,1.9575,1.9578,1.9581,1.9543,0,0,0,0,0,0,1.8303,1.8345,1.8385,1.8526,1.8572,1.8756,1.8764,1.8788,1.8855,1.886,1.9,1.9022,1.9091,1.9227,1.9256,1.9298,1.9261,1.9572,1.9576,1.958,1.9542,1.9545,1.9547,0,0,0,0,0,1.8288,1.8364,1.8387,1.8422,1.8624,1.8758,1.8784,1.8863,1.8858,1.89,1.8983,1.9017,1.9273,1.9239,1.9273,1.9319,1.957,1.9575,1.958,1.954,1.9544,1.9547,0,0,0,0,0,0,1.8224,1.8383,1.8411,1.8533,1.8631,1.8771,1.8826,1.8864,1.8965,1.8966,1.9059,1.909,1.9208,1.9275,1.9234,1.943,1.9424,1.9435,1.9382,1.9387,1.9389,1.9372,1.927,0,0,0,0,0,1.8224,1.8318,1.8452,1.8548,1.8596,1.8702,1.8763,1.8816,1.8921,1.8963,1.9055,1.9156,1.926,1.9327,1.9429,1.9551,1.9585,1.9599,1.9602,1.9604,1.9614,1.9688,1.9697,1.9599,1.9599,1.9598,0,0,1.8225,1.8324,1.8378,1.8538,1.862,1.8717,1.8737,1.8837,1.8911,1.8978,1.9103,1.9173,1.9293,1.9418,1.9477,1.9477,1.9648,1.961,1.961,1.962,1.9694,1.9703,1.9711,1.9602,1.9601,1.9601,0,0,1.8278,1.8361,1.8452,1.8534,1.8658,1.8729,1.875,1.8886,1.8936,1.9062,1.9115,1.9204,1.9379,1.9464,1.953,1.9617,1.9654,1.9647,1.9664,1.9735,1.9742,1.975,1.9785,1.9796,1.9656,1.9656,1.9656,0,1.8264,1.8412,1.8493,1.8593,1.8664,1.8729,1.8823,1.8899,1.905,1.9098,1.9096,1.932,1.9405,1.9552,1.9574,1.9623,1.9654,1.9633,1.9734,1.9743,1.9751,1.9786,1.9798,1.9655,1.9655,1.9655,1.9656,0,1.8391,1.8493,1.8552,1.8697,1.8774,1.887,1.8967,1.9035,1.9081,1.9153,1.9282,1.9386,1.9512,1.955,1.9595,1.9706,1.9703,1.9716,1.9712,1.9758,1.9792,1.9806,1.9653,1.9654,1.9654,1.9655,0,0,1.8411,1.8602,1.8623,1.8691,1.8834,1.8915,1.9015,1.9139,1.9197,1.9299,1.9388,1.9536,1.9551,1.9626,1.9681,1.9742,1.981,1.9749,1.9754,1.976,1.9943,1.9934,1.9948,1.9834,1.9837,1.9839,1.9934,0,1.8486,1.8667,1.8745,1.8892,1.8989,1.9053,1.9141,1.9239,1.9309,1.9402,1.9479,1.9585,1.9594,1.964,1.9703,1.9788,1.9849,1.9782,1.992,1.9924,1.9892,1.9965,1.9956,2.0041,1.9947,1.995,1.9951,0,1.8597,1.8701,1.8858,1.8993,1.9036,1.9114,1.9236,1.9323,1.9437,1.9483,1.9568,1.962,1.973,1.9717,1.9871,1.9824,1.9885,1.9935,1.9941,1.9959,1.9943,1.999,2.0069,2.0083,1.9972,1.9971,1.9969,0,1.8601,1.878,1.8898,1.8954,1.9113,1.9167,1.9235,1.9347,1.9418,1.9524,1.9572,1.9689,1.9754,1.9844,1.9928,1.991,2.0076,2.0069,2.0121,2.0119,2.0155,2.0152,2.0249,2.0187,2.0187,2.0187,2.0187,0,1.8678,1.8772,1.8903,1.8976,1.9085,1.9173,1.9278,1.9351,1.9451,1.9541,1.9602,1.9685,1.9789,1.9886,1.9952,2.0073,2.01,2.0143,2.016,2.014,2.0135,2.0183,2.0181,2.0191,2.019,2.0189,2.0188,0,1.8701,1.8792,1.8926,1.9066,1.9103,1.9178,1.9298,1.9373,1.9445,1.9559,1.959,1.9705,1.9823,1.9915,2.0067,2.0112,2.024,2.0257,2.0202,2.0212,2.026,2.0256,2.0395,2.042,2.0337,2.0338,2.0338,0,1.8746,1.8821,1.8969,1.9034,1.9103,1.9205,1.9279,1.9369,1.9443,1.9579,1.9638,1.976,1.9863,2.0048,2.0146,2.0264,2.0287,2.0327,2.0305,2.0283,2.0293,2.0289,2.0298,2.0331,2.0331,2.0332,2.0332,0,1.8818,1.886,1.8962,1.9083,1.9168,1.9267,1.9367,1.9416,1.9525,1.9605,1.9727,1.9806,1.9964,2.0086,2.0214,2.0286,2.0329,2.0338,2.0357,2.0339,2.0306,2.0329,2.0214,2.0335,2.0335,2.0334,2.0334,2.0334,1.8857,1.8928,1.9044,1.9158,1.9243,1.9335,1.9413,1.9497,1.9599,1.9735,1.9782,1.9908,2.0023,2.02,2.0273,2.0374,2.0377,2.0403,2.0411,2.0417,2.0417,2.0287,2.0397,2.0397,2.0398,2.0398,2.0398,0,1.8935,1.9014,1.9117,1.9256,1.9346,1.9377,1.949,1.9564,1.9674,1.9777,1.9878,2.0019,2.0138,2.0246,2.037,2.0431,2.0454,2.0461,2.046,2.0476,2.0405,2.0379,2.0441,2.0441,2.0441,2.0441,2.0441,2.0441,1.8987,1.911,1.9166,1.9332,1.9411,1.9535,1.9598,1.9685,1.9768,1.9923,2.0023,2.0092,2.0198,2.0331,2.0443,2.0472,2.0517,2.052,2.0554,2.0486,2.0481,2.0476,2.0451,2.0527,2.0528,2.0617,2.0618,2.0618]}]]